WetterOnline ( http://www.wetteronline.de )

Wetter aktuell Spessart (in 500m)

Aktuelles Wetter: Neuhütten/Spessart (340m)

6-stündlich | Neueste Meldungen
Ortszeit Temperatur Wetter
So, 17.02. 1:00 -1.4° C fast wolkenlos
Sa, 16.02. 19:00 5.5° C wolkenlos
Sa, 16.02. 13:00 9.2° C wolkenlos
Sa, 16.02. 7:00 -3.2° C wolkenlos
Sa, 16.02. 1:00 -0.8° C wolkenlos
Fr, 15.02. 19:00 4.6° C wolkenlos
Fr, 15.02. 13:00 8.6° C wolkenlos
Fr, 15.02. 7:00 -3.5° C Nebel
Ortszeit Temperatur Wetter
So, 17.02. 6:00 -2.7° C wolkig
So, 17.02. 5:50 -2.7° C wolkig
So, 17.02. 5:40 -2.8° C bewölkt
So, 17.02. 5:30 -3.0° C wolkig
So, 17.02. 5:20 -3.0° C wolkig
So, 17.02. 5:10 -2.8° C Nebel
So, 17.02. 5:00 -2.6° C wolkig
So, 17.02. 4:30 -2.2° C wolkig
So, 17.02. 4:00 -2.0° C leicht bewölkt
So, 17.02. 3:30 -2.0° C leicht bewölkt
So, 17.02. 3:00 -1.9° C leicht bewölkt
Ortszeit Relative Feuchte Sichtweite
So, 17.02. 1:00 95% 12 km
Sa, 16.02. 19:00 75% 30 km
Sa, 16.02. 13:00 50% 45 km
Sa, 16.02. 7:00 97% 6 km
Sa, 16.02. 1:00 98% 19 km
Fr, 15.02. 19:00 72% 40 km
Fr, 15.02. 13:00 48% 45 km
Fr, 15.02. 7:00 97% 0.7 km
Ortszeit Relative Feuchte Sichtweite
So, 17.02. 6:00 98% 3.9 km
So, 17.02. 5:50 98% -
So, 17.02. 5:40 96% -
So, 17.02. 5:30 99% 1.3 km
So, 17.02. 5:20 99% -
So, 17.02. 5:10 96% -
So, 17.02. 5:00 97% 5.0 km
So, 17.02. 4:30 98% 3.8 km
So, 17.02. 4:00 97% 5.0 km
So, 17.02. 3:30 99% 1.4 km
So, 17.02. 3:00 99% 3.5 km
Ortszeit Niederschlagsmenge Niederschlagsart
So, 17.02. 1:00 0.0 l/m2 in 6 Std. -
Sa, 16.02. 19:00 0.0 l/m2 in 12 Std. -
Sa, 16.02. 13:00 0.0 l/m2 in 6 Std. -
Sa, 16.02. 7:00 0.0 l/m2 in 12 Std. -
Sa, 16.02. 1:00 0.0 l/m2 in 6 Std. -
Fr, 15.02. 19:00 0.0 l/m2 in 12 Std. -
Fr, 15.02. 13:00 0.0 l/m2 in 6 Std. -
Fr, 15.02. 7:00 0.0 l/m2 in 12 Std. -
Ortszeit Niederschlagsmenge Niederschlagsart
So, 17.02. 6:00 0.0 l/m2 in 1 Std. -
So, 17.02. 5:50 keine Meldung -
So, 17.02. 5:40 keine Meldung -
So, 17.02. 5:30 0.0 l/m2 in 1 Std. -
So, 17.02. 5:20 keine Meldung -
So, 17.02. 5:10 keine Meldung -
So, 17.02. 5:00 0.0 l/m2 in 1 Std. -
So, 17.02. 4:30 0.0 l/m2 in 1 Std. -
So, 17.02. 4:00 0.0 l/m2 in 1 Std. -
So, 17.02. 3:30 0.0 l/m2 in 1 Std. -
So, 17.02. 3:00 0.0 l/m2 in 1 Std. -
Ortszeit Stärke Spitze Richtung
km/h Bft. km/h Grad Sektor
So, 17.02. 1:00 0 0 4 - -
Sa, 16.02. 19:00 4 1 14 80° O
Sa, 16.02. 13:00 9 2 13 60° NO
Sa, 16.02. 7:00 4 1 7 200° S
Sa, 16.02. 1:00 0 0 11 - -
Fr, 15.02. 19:00 4 1 22 60° NO
Fr, 15.02. 13:00 13 3 17 60° NO
Fr, 15.02. 7:00 4 1 7 100° O
Ortszeit Stärke Spitze Richtung
km/h Bft. km/h Grad Sektor
So, 17.02. 6:00 4 1 4 190° S
So, 17.02. 5:50 4 1 - 190° S
So, 17.02. 5:40 4 1 - 200° S
So, 17.02. 5:30 4 1 4 170° S
So, 17.02. 5:20 4 1 - 170° S
So, 17.02. 5:10 2 1 - 120° SO
So, 17.02. 5:00 4 1 4 90° O
So, 17.02. 4:30 4 1 4 70° O
So, 17.02. 4:00 0 0 4 - -
So, 17.02. 3:30 0 0 4 - -
So, 17.02. 3:00 0 0 4 - -
Ortszeit Untergrenze Bedeckung Gattung
total tief tief mittel hoch
So, 17.02. 1:00 10500 m 1/8 0/8 - - -
Sa, 16.02. 19:00 - 0/8 0/8 - - -
Sa, 16.02. 13:00 - 0/8 0/8 - - -
Sa, 16.02. 7:00 - 0/8 0/8 - - -
Sa, 16.02. 1:00 - 0/8 0/8 - - -
Fr, 15.02. 19:00 - 0/8 0/8 - - -
Fr, 15.02. 13:00 - 0/8 0/8 - - -
Fr, 15.02. 7:00 - 0/8 0/8 - - -
Ortszeit Bedeckungsgrad in Achtel und Wolkenuntergrenze
So, 17.02. 6:00 2(<30m) 8(9000m)
So, 17.02. 5:50 2(<30m) 8(9000m)
So, 17.02. 5:40 4(<30m) 8(9000m)
So, 17.02. 5:30 2(<30m) 8(9000m) 8(10500m)
So, 17.02. 5:20 2(<30m) 8(9000m) 8(10500m)
So, 17.02. 5:10 8(9000m) 8(10500m)
So, 17.02. 5:00 7(10500m) 8(10500m)
So, 17.02. 4:30 1(1800m) 7(10500m) 7(10500m)
So, 17.02. 4:00 1(<30m) 4(10500m) 9
So, 17.02. 3:30 1(1500m) 4(10500m) 3(10500m)
So, 17.02. 3:00 1(<30m)
Ortszeit Luftdruck NN (hPa) Tendenz (hPa in 3 Std.)
So, 17.02. 1:00 1029 - 0,4
Sa, 16.02. 19:00 1029 + 0,3
Sa, 16.02. 13:00 1029 - 0,9
Sa, 16.02. 7:00 1032 - 0,3
Sa, 16.02. 1:00 1032 - 0,7
Fr, 15.02. 19:00 1033 - 0,5
Fr, 15.02. 13:00 1035 - 1,0
Fr, 15.02. 7:00 1038 + 0,3
Ortszeit Luftdruck NN (hPa) Tendenz (hPa in 3 Std.)
So, 17.02. 6:00 1029 - 0,5
So, 17.02. 5:50 1029 keine Meldung
So, 17.02. 5:40 1029 keine Meldung
So, 17.02. 5:30 1029 - 0,6
So, 17.02. 5:20 1029 keine Meldung
So, 17.02. 5:10 1029 keine Meldung
So, 17.02. 5:00 1029 - 0,4
So, 17.02. 4:30 1028 - 0,6
So, 17.02. 4:00 1029 - 0,5
So, 17.02. 3:30 1029 - 0,4
So, 17.02. 3:00 1029 - 0,3
Ortszeit Schneehöhe (cm)
So, 17.02. 1:00 0
Sa, 16.02. 19:00 0
Sa, 16.02. 13:00 0
Sa, 16.02. 7:00 0
Sa, 16.02. 1:00 0
Fr, 15.02. 19:00 0
Fr, 15.02. 13:00 0
Fr, 15.02. 7:00 0
Ortszeit Schneehöhe (cm)
So, 17.02. 6:00 0
So, 17.02. 5:50 0
So, 17.02. 5:40 0
So, 17.02. 5:30 0
So, 17.02. 5:20 0
So, 17.02. 5:10 0
So, 17.02. 5:00 0
So, 17.02. 4:30 0
So, 17.02. 4:00 0
So, 17.02. 3:30 0
So, 17.02. 3:00 0
Link zu dieser Seite / Seite empfehlen

Das Wetter in ...